{"data":{"norad_id":43706,"intl_designator":"2018-093A","name":"BEIDOU-3 M17 (C36)","alt_names":[],"object_type":"PAYLOAD","status":"ACTIVE","operator":null,"country":"PRC","launch_date":"2018-11-18","launch_site_code":"XICLF","launch_vehicle":null,"mission":null,"orbit_class":"UNKNOWN","rcs_meters":null,"size_class":null,"mass_kg":null,"dimensions":null,"purposes":["nav"],"wikipedia_slug":null,"has_3d_model":false,"image_url":null,"decayed_at":null,"tle_current":{"epoch":"2026-09-16T21:23:48.319008Z","epoch_age_seconds":326139,"freshness":"STALE","line1":"1 43706U 18093A   26259.89153147 -.00000007  00000+0  00000+0 0  9999","line2":"2 43706  54.1660 179.1872 0008397 303.8235 256.2060  1.86228478 53241","mean_motion":1.86228478,"eccentricity":0.0008397,"inclination_deg":54.166,"raan_deg":179.1872,"arg_perigee_deg":303.8235,"mean_anomaly_deg":256.206,"bstar":0,"rev_number":5324,"period_min":773.24371410048,"perigee_km":21504.870471676,"apogee_km":21551.736547868,"semimajor_km":27906.440509772,"source":"CELESTRAK","updated_at":"2026-09-20T09:00:46.711017Z"}}}